Location: Unspecified
(42.0334°N, 93.6656°W)
Time: 00:09:54
(UTC-06:00)

Amateur Radio Satellites - All Passes

Search period start: 21 February 2017 23:39
Search period end: 22 February 2017 23:39
Location: Unspecified, 42.0334°N, 93.6656°W

Satellite Date Start Highest point End Downlink Frequencies (MHz)
Time Altitude Azimuth
ESTCUBE 1 21 Feb 23:55:18 23:58:46 22° 266° (W) 00:02:16 437.505/2401.250
SO-50 21 Feb 23:56:59 00:01:33 51° 308° (NW) 00:06:04 436.795
AIST 2D 21 Feb 23:57:01 00:00:32 57° 285° (WNW) 00:04:01 435.315
RS-15 21 Feb 23:59:24 00:09:26 27° 16° (NNE) 00:19:18 29.354- 29.394
PCSat 22 Feb 00:04:17 00:05:27 11° 33° (NNE) 00:06:38 145.827
BUGSAT 1 22 Feb 00:06:50 00:10:21 25° 95° (E) 00:13:52 437.445
DUCHIFAT 1 22 Feb 00:28:21 00:32:35 63° 286° (WNW) 00:36:47 145.980
EO-79 22 Feb 00:34:32 00:38:38 45° 288° (WNW) 00:42:43 145.935-145.965
VELOX 1 22 Feb 00:38:07 00:41:27 21° 266° (W) 00:44:49 145.980
FO-29 22 Feb 00:38:20 00:44:41 29° 300° (WNW) 00:50:41 435.910
DX 1 22 Feb 00:41:54 00:45:58 40° 261° (W) 00:50:04 434.975-435.025
POLYITAN 1 22 Feb 00:51:03 00:54:49 30° 291° (WNW) 00:58:36 437.675
O/OREOS (USA 219) 22 Feb 00:52:39 00:55:59 20° 305° (NW) 00:59:21 437.305
QB50P2 22 Feb 00:53:58 00:57:34 27° 292° (WNW) 01:01:10 145.880/145.840
NANOSAT C BR1 22 Feb 00:54:21 00:58:07 30° 291° (WNW) 01:01:51 145.865
UKube-1 22 Feb 01:02:14 01:06:07 33° 262° (W) 01:10:02 .
50 SAT 22 Feb 01:04:23 01:05:15 11° 269° (W) 01:06:08 437.505
Oscar 19 22 Feb 01:06:51 01:11:25 32° 96° (E) 01:15:56 437.125/150
ITUPSAT 1 22 Feb 01:08:02 01:11:34 21° 64° (ENE) 01:15:05 437.325
BEESAT 22 Feb 01:16:53 01:20:46 25° 66° (ENE) 01:24:39 436.000
Gurwin Techsat 1B 22 Feb 01:20:23 01:24:40 24° 94° (E) 01:28:56 435.225
BUGSAT 1 22 Feb 01:42:02 01:45:40 28° 291° (WNW) 01:49:18 437.445
SO-50 22 Feb 01:42:18 01:43:04 10° 328° (NNW) 01:43:51 436.795
PCSat 22 Feb 01:44:58 01:50:14 48° 55° (NE) 01:55:28 145.827
AO-7 22 Feb 02:04:42 02:07:24 12° 86° (E) 02:10:05 .
MOZHAYETS 4 22 Feb 02:12:09 02:16:10 30° 68° (ENE) 02:20:13
RS-15 22 Feb 02:13:13 02:25:25 59° 47° (NE) 02:37:07 29.354- 29.394
ITUPSAT 1 22 Feb 02:44:26 02:49:03 46° 261° (W) 02:53:41 437.325
Oscar 19 22 Feb 02:46:11 02:50:40 32° 293° (WNW) 02:55:09 437.125/150
BEESAT 22 Feb 02:53:57 02:58:21 36° 262° (W) 03:02:47 436.000
Gurwin Techsat 1B 22 Feb 02:59:45 03:04:46 44° 291° (WNW) 03:09:47 435.225
CUBESAT XI-V 22 Feb 03:02:20 03:05:18 17° 64° (ENE) 03:08:16 437.345
ITAMSAT 1 22 Feb 03:10:52 03:15:56 46° 100° (E) 03:20:56 435.822/435.867
KKS-1 22 Feb 03:11:13 03:15:10 33° 69° (ENE) 03:19:07 437.445
PCSat 22 Feb 03:28:58 03:33:19 25° 252° (WSW) 03:37:38 145.827
MOZHAYETS 4 22 Feb 03:49:17 03:53:16 28° 265° (W) 03:57:18
AO-7 22 Feb 03:53:19 04:01:37 68° 105° (ESE) 04:09:51 .
STARS 22 Feb 03:55:47 03:59:55 43° 71° (ENE) 04:04:05 437.465
AO-85 22 Feb 04:02:07 04:04:11 13° 110° (ESE) 04:06:13 145.980
M-CUBED/EXP-1 PRIME 22 Feb 04:05:28 04:08:41 47° 69° (ENE) 04:11:50 437.505
RS-15 22 Feb 04:26:18 04:37:40 47° 251° (WSW) 04:48:36 29.354- 29.394
CUBESAT XI-V 22 Feb 04:37:40 04:42:14 54° 260° (W) 04:46:49 437.345
KKS-1 22 Feb 04:48:13 04:51:45 23° 265° (W) 04:55:18 437.445
ITAMSAT 1 22 Feb 04:50:59 04:55:05 24° 296° (WNW) 04:59:08 435.822/435.867
STRAND 1 22 Feb 05:11:52 05:13:53 12° 58° (ENE) 05:15:55 437.568
CUTE-I 22 Feb 05:31:54 05:35:41 19° 92° (E) 05:39:25 437.470
STARS 22 Feb 05:33:35 05:36:28 17° 267° (W) 05:39:22 437.465
XW-2F 22 Feb 05:34:55 05:37:25 17° 93° (E) 05:39:54 145.980 - 146.000
KAITUO 1B 22 Feb 05:36:45 05:38:55 15° 92° (E) 05:41:02 145.475/437.950
XW-2D 22 Feb 05:37:01 05:39:46 19° 93° (E) 05:42:30 145.860 - 145.880
AO-85 22 Feb 05:39:36 05:44:09 69° 304° (NW) 05:48:24 145.980
XW-2B 22 Feb 05:41:49 05:44:45 21° 94° (E) 05:47:40 145.730 - 145.750
AO-7 22 Feb 05:46:55 05:53:46 30° 305° (NW) 06:00:36 .
XW-2C 22 Feb 05:50:03 05:53:18 26° 95° (E) 05:56:32 145.795 - 145.815
LilacSat-2 22 Feb 06:02:35 06:06:13 38° 98° (E) 06:09:49 437.200
NUDT-PHONESAT 22 Feb 06:15:05 06:18:42 42° 99° (E) 06:22:16 437.300
DOVE 4 22 Feb 06:19:39 06:24:15 67° 101° (ESE) 06:29:08 437.250
HO-68 22 Feb 06:32:26 06:36:56 17° 90° (E) 06:41:24 435.675
STRAND 1 22 Feb 06:47:08 06:52:16 89° 82° (E) 06:57:28 437.568
SO-50 22 Feb 06:48:02 06:51:35 22° 43° (NE) 06:55:06 436.795
CUTE 1.7 + AOD 2 22 Feb 06:48:47 06:51:06 14° 91° (E) 06:53:24 437.475
XW-2A 22 Feb 06:53:34 06:56:17 21° 95° (E) 06:59:00 145.665 - 145.685
XW-2F 22 Feb 07:08:12 07:11:41 33° 289° (WNW) 07:15:06 145.980 - 146.000
KAITUO 1B 22 Feb 07:09:34 07:13:06 38° 288° (WNW) 07:16:35 145.475/437.950
XW-2D 22 Feb 07:10:38 07:14:01 30° 290° (WNW) 07:17:22 145.860 - 145.880
CUTE-I 22 Feb 07:10:48 07:16:04 57° 289° (WNW) 07:21:19 437.470
XW-2B 22 Feb 07:15:40 07:18:57 27° 290° (WNW) 07:22:13 145.730 - 145.750
BEESAT 3 22 Feb 07:23:50 07:27:44 88° 119° (ESE) 07:31:42 437.485
AO-85 22 Feb 07:24:04 07:25:16 11° 323° (NW) 07:26:28 145.980
XW-2C 22 Feb 07:24:23 07:27:23 22° 292° (WNW) 07:30:21 145.795 - 145.815
PRISM 22 Feb 07:32:00 07:32:55 11° 61° (ENE) 07:33:51 437.425
LilacSat-2 22 Feb 07:37:49 07:40:11 16° 294° (WNW) 07:42:33 437.200
O/OREOS (USA 219) 22 Feb 07:44:16 07:45:52 12° 49° (NE) 07:47:29 437.305
ZACube-1 22 Feb 07:45:22 07:45:28 10° 87° (E) 07:45:33 437.345
NUDT-PHONESAT 22 Feb 07:50:16 07:52:16 14° 295° (WNW) 07:54:16 437.300
SEEDS 22 Feb 07:51:43 07:55:47 47° 99° (E) 07:59:47 437.485
AAUSAT CUBESAT 2 22 Feb 07:52:25 07:55:45 23° 94° (E) 07:59:03 437.432
BEESAT 2 22 Feb 07:53:57 07:57:52 76° 122° (ESE) 08:01:53 435.950
DOVE 4 22 Feb 07:59:05 08:01:29 14° 296° (WNW) 08:03:57 437.250
CUBEBUG 2 22 Feb 08:03:19 08:07:54 45° 98° (E) 08:12:27 437.445
UNISAT 6 22 Feb 08:10:15 08:12:14 13° 61° (ENE) 08:14:12 437.425
TIGRISAT 22 Feb 08:11:54 08:13:41 12° 60° (ENE) 08:15:30 435.000
HO-68 22 Feb 08:18:16 08:25:27 84° 289° (WNW) 08:32:37 435.675
CUTE 1.7 + AOD 2 22 Feb 08:23:07 08:27:12 48° 287° (WNW) 08:31:15 437.475
XW-2A 22 Feb 08:26:17 08:28:59 21° 291° (WNW) 08:31:40 145.665 - 145.685
SO-50 22 Feb 08:27:57 08:32:19 50° 241° (WSW) 08:36:38 436.795
STRAND 1 22 Feb 08:31:04 08:32:07 11° 272° (W) 08:33:10 437.568
Tancredo 1 22 Feb 08:32:10 08:34:42 21° 134° (SE) 08:37:13 437.200
AO-73 22 Feb 08:32:34 08:36:38 31° 96° (E) 08:40:37 145.935
Oscar 11 22 Feb 08:43:54 08:47:53 34° 97° (E) 08:51:47 .
UWE-3 22 Feb 08:48:22 08:53:06 85° 104° (ESE) 08:57:44 435.000/436.395/437.385
PRISM 22 Feb 09:03:33 09:07:37 71° 257° (WSW) 09:11:43 437.425
BEESAT 3 22 Feb 09:04:12 09:05:56 12° 321° (NW) 09:07:40 437.485
FO-29 22 Feb 09:04:30 09:10:39 33° 62° (ENE) 09:17:15 435.910
ZACube-1 22 Feb 09:17:42 09:22:18 79° 285° (WNW) 09:26:49 437.345
O/OREOS (USA 219) 22 Feb 09:21:22 09:25:58 90° 94° (E) 09:30:33 437.305
AAUSAT CUBESAT 2 22 Feb 09:27:39 09:31:11 28° 291° (WNW) 09:34:41 437.432
SEEDS 22 Feb 09:28:37 09:31:04 15° 296° (WNW) 09:33:31 437.485
ISS 22 Feb 09:33:23 09:36:40 82° 145° (SE) 09:39:59 437.550
BEESAT 2 22 Feb 09:34:01 09:36:10 14° 320° (NW) 09:38:20 435.950
CUBEBUG 2 22 Feb 09:40:41 09:44:11 21° 295° (WNW) 09:47:39 437.445
UNISAT 6 22 Feb 09:43:51 09:48:17 72° 258° (WSW) 09:52:53 437.425
TIGRISAT 22 Feb 09:45:15 09:49:42 75° 258° (WSW) 09:54:17 435.000
EO-79 22 Feb 09:53:37 09:55:39 13° 63° (ENE) 09:57:43 145.935-145.965
DELFI C3 22 Feb 09:56:25 10:00:21 73° 102° (ESE) 10:04:15 145.870
Tancredo 1 22 Feb 10:07:37 10:10:47 48° 330° (NNW) 10:13:57 437.200
HO-68 22 Feb 10:07:44 10:12:09 18° 307° (NW) 10:16:35 435.675
POLYITAN 1 22 Feb 10:08:51 10:11:53 19° 66° (ENE) 10:14:57 437.675
AO-73 22 Feb 10:08:55 10:12:44 26° 292° (WNW) 10:16:29 145.935
QB50P2 22 Feb 10:11:24 10:14:39 22° 67° (ENE) 10:17:57 145.880/145.840
NANOSAT C BR1 22 Feb 10:11:47 10:14:46 19° 65° (ENE) 10:17:46 145.865
YUBILEINY 22 Feb 10:14:14 10:22:30 47° 88° (E) 10:30:45 435.215
Oscar 11 22 Feb 10:20:28 10:23:47 22° 293° (WNW) 10:27:06 .
UWE-3 22 Feb 10:27:17 10:28:49 12° 300° (WNW) 10:30:21 435.000/436.395/437.385
AIST 2D 22 Feb 10:31:29 10:34:55 48° 74° (ENE) 10:38:23 435.315
FO-29 22 Feb 10:48:28 10:55:13 54° 262° (W) 11:02:42 435.910
BUGSAT 1 22 Feb 10:57:28 11:00:17 18° 65° (ENE) 11:03:08 437.445
ISS 22 Feb 11:10:47 11:13:28 22° 342° (NNW) 11:16:08 437.550
DUCHIFAT 1 22 Feb 11:20:00 11:24:11 84° 257° (WSW) 11:28:26 145.980
SPROUT 22 Feb 11:26:19 11:27:58 12° 90° (E) 11:29:37 437.525
EO-79 22 Feb 11:26:46 11:30:55 59° 259° (W) 11:35:07 145.935-145.965
POLYITAN 1 22 Feb 11:43:28 11:47:24 38° 262° (W) 11:51:24 437.675
Tancredo 1 22 Feb 11:45:26 11:47:40 17° 350° (N) 11:49:53 437.200
ESTCUBE 1 22 Feb 11:45:54 11:50:25 77° 102° (ESE) 11:54:53 437.505/2401.250
NANOSAT C BR1 22 Feb 11:46:17 11:50:12 38° 262° (W) 11:54:10 145.865
QB50P2 22 Feb 11:46:27 11:50:15 33° 263° (W) 11:54:07 145.880/145.840
YUBILEINY 22 Feb 12:11:16 12:19:23 40° 288° (WNW) 12:27:33 435.215
Oscar 19 22 Feb 12:23:52 12:28:49 49° 71° (ENE) 12:33:46 437.125/150
50 SAT 22 Feb 12:25:56 12:29:17 45° 100° (E) 12:32:36 437.505
VELOX 1 22 Feb 12:26:13 12:30:37 68° 101° (ESE) 12:35:00 145.980
DX 1 22 Feb 12:29:27 12:33:21 31° 97° (E) 12:37:13 434.975-435.025
AO-85 22 Feb 12:31:35 12:33:35 13° 40° (NE) 12:35:35 145.980
BUGSAT 1 22 Feb 12:31:38 12:35:22 36° 262° (W) 12:39:10 437.445
Gurwin Techsat 1B 22 Feb 12:41:38 12:46:33 40° 69° (ENE) 12:51:30 435.225
UKube-1 22 Feb 12:48:23 12:52:23 36° 98° (E) 12:56:21 .
ISS 22 Feb 12:48:43 12:50:48 15° 3° (N) 12:52:52 437.550
ITAMSAT 1 22 Feb 12:54:49 12:55:44 10° 56° (NE) 12:56:39 435.822/435.867
SPROUT 22 Feb 13:00:01 13:04:16 61° 286° (WNW) 13:08:30 437.525
AO-7 22 Feb 13:02:55 13:08:59 23° 51° (NE) 13:15:02 .
Tancredo 1 22 Feb 13:22:39 13:24:52 17° 10° (N) 13:27:06 437.200
ESTCUBE 1 22 Feb 13:25:01 13:26:34 12° 299° (WNW) 13:28:08 437.505/2401.250
50 SAT 22 Feb 14:00:57 14:02:00 11° 296° (WNW) 14:03:03 437.505
VELOX 1 22 Feb 14:04:34 14:06:31 13° 299° (WNW) 14:08:26 145.980
Oscar 19 22 Feb 14:04:35 14:08:23 21° 267° (W) 14:12:12 437.125/150
DX 1 22 Feb 14:05:53 14:09:23 24° 293° (WNW) 14:12:53 434.975-435.025
AO-85 22 Feb 14:10:33 14:14:27 73° 239° (WSW) 14:18:24 145.980
Gurwin Techsat 1B 22 Feb 14:22:11 14:26:36 26° 265° (W) 14:31:02 435.225
UKube-1 22 Feb 14:24:57 14:28:11 21° 294° (WNW) 14:31:25 .
ISS 22 Feb 14:25:07 14:28:03 29° 23° (NNE) 14:30:58 437.550
ITAMSAT 1 22 Feb 14:29:06 14:34:16 75° 74° (ENE) 14:39:30 435.822/435.867
ITUPSAT 1 22 Feb 14:44:18 14:48:54 42° 99° (E) 14:53:25 437.325
AO-7 22 Feb 14:52:19 15:00:43 89° 254° (WSW) 15:09:08 .
BEESAT 22 Feb 14:53:04 14:57:47 54° 101° (E) 15:02:26 436.000
Tancredo 1 22 Feb 14:58:36 15:01:45 48° 30° (NNE) 15:04:52 437.200
BEESAT 3 22 Feb 15:40:17 15:44:15 56° 55° (NE) 15:48:11 437.485
MOZHAYETS 4 22 Feb 15:42:59 15:47:35 65° 101° (ESE) 15:52:08
ISS 22 Feb 16:01:28 16:04:37 45° 221° (SW) 16:07:45 437.550
BEESAT 2 22 Feb 16:11:17 16:15:15 50° 53° (NE) 16:19:11 435.950
ITAMSAT 1 22 Feb 16:11:47 16:14:17 13° 270° (W) 16:16:48 435.822/435.867
XW-2D 22 Feb 16:20:33 16:21:34 11° 63° (ENE) 16:22:36 145.860 - 145.880
ITUPSAT 1 22 Feb 16:22:46 16:26:26 22° 295° (WNW) 16:30:03 437.325
XW-2B 22 Feb 16:25:00 16:26:30 12° 64° (ENE) 16:27:59 145.730 - 145.750
PCSat 22 Feb 16:27:04 16:32:05 40° 111° (ESE) 16:37:06 145.827
BEESAT 22 Feb 16:31:56 16:35:07 18° 297° (WNW) 16:38:18 436.000
XW-2C 22 Feb 16:32:42 16:34:54 15° 65° (ENE) 16:37:07 145.795 - 145.815
CUBESAT XI-V 22 Feb 16:33:48 16:38:02 35° 97° (E) 16:42:13 437.345
Tancredo 1 22 Feb 16:35:23 16:37:50 20° 226° (SW) 16:40:15 437.200
KKS-1 22 Feb 16:37:25 16:41:52 62° 102° (ESE) 16:46:18 437.445
RS-15 22 Feb 16:38:13 16:48:05 32° 103° (ESE) 16:58:14 29.354- 29.394
LilacSat-2 22 Feb 16:45:12 16:48:11 21° 68° (ENE) 16:51:10 437.200
AO-7 22 Feb 16:49:08 16:54:30 18° 270° (W) 16:59:54 .
CUTE-I 22 Feb 16:53:48 16:58:29 33° 67° (ENE) 17:03:13 437.470
NUDT-PHONESAT 22 Feb 16:55:21 16:58:14 21° 68° (ENE) 17:01:09 437.300
HO-68 22 Feb 17:03:16 17:07:13 16° 52° (NE) 17:11:09 435.675
M-CUBED/EXP-1 PRIME 22 Feb 17:16:51 17:20:16 34° 104° (ESE) 17:23:54 437.505
BEESAT 3 22 Feb 17:19:25 17:21:23 13° 251° (WSW) 17:23:20 437.485
STARS 22 Feb 17:20:28 17:24:54 81° 101° (ESE) 17:29:21 437.465
MOZHAYETS 4 22 Feb 17:21:47 17:24:11 14° 298° (WNW) 17:26:34
DOVE 4 22 Feb 17:25:56 17:30:02 66° 75° (ENE) 17:34:10 437.250
CUTE 1.7 + AOD 2 22 Feb 17:42:48 17:44:27 12° 62° (ENE) 17:46:06 437.475
XW-2F 22 Feb 17:48:44 17:52:32 70° 258° (WSW) 17:56:24 145.980 - 146.000
KAITUO 1B 22 Feb 17:49:17 17:53:05 82° 258° (WSW) 17:56:56 145.475/437.950
BEESAT 2 22 Feb 17:50:14 17:52:37 15° 250° (WSW) 17:55:00 435.950
XW-2D 22 Feb 17:51:27 17:55:14 61° 259° (W) 17:59:05 145.860 - 145.880
XW-2B 22 Feb 17:56:27 18:00:13 54° 260° (W) 18:04:01 145.730 - 145.750
XW-2C 22 Feb 18:05:06 18:08:45 41° 262° (W) 18:12:27 145.795 - 145.815
PCSat 22 Feb 18:10:41 18:15:31 32° 310° (NW) 18:20:24 145.827
CUBESAT XI-V 22 Feb 18:11:33 18:15:13 24° 293° (WNW) 18:18:52 437.345
KKS-1 22 Feb 18:15:34 18:17:54 14° 298° (WNW) 18:20:15 437.445
LilacSat-2 22 Feb 18:18:57 18:22:18 28° 264° (W) 18:25:41 437.200
NUDT-PHONESAT 22 Feb 18:28:51 18:32:02 26° 264° (W) 18:35:16 437.300
CUTE-I 22 Feb 18:33:43 18:38:28 33° 264° (W) 18:43:17 437.470
AAUSAT CUBESAT 2 22 Feb 18:43:24 18:46:10 18° 66° (ENE) 18:48:58 437.432
SEEDS 22 Feb 18:43:33 18:47:24 34° 71° (ENE) 18:51:15 437.485
HO-68 22 Feb 18:46:37 18:53:46 75° 71° (ENE) 19:00:56 435.675
RS-15 22 Feb 18:47:26 18:59:25 77° 306° (NW) 19:11:53 29.354- 29.394
M-CUBED/EXP-1 PRIME 22 Feb 18:51:58 18:54:34 19° 297° (WNW) 18:57:18 437.505
XW-2A 22 Feb 18:57:09 19:00:29 60° 260° (W) 19:03:52 145.665 - 145.685
STRAND 1 22 Feb 18:57:38 19:02:07 29° 96° (E) 19:06:34 437.568
STARS 22 Feb 18:59:25 19:00:35 11° 300° (WNW) 19:01:46 437.465
CUBEBUG 2 22 Feb 19:01:40 19:05:42 37° 70° (ENE) 19:09:54 437.445
CUTE 1.7 + AOD 2 22 Feb 19:15:27 19:19:43 68° 259° (W) 19:24:00 437.475
AO-73 22 Feb 19:28:23 19:32:02 26° 67° (ENE) 19:35:45 145.935
Oscar 11 22 Feb 19:39:00 19:42:44 28° 69° (ENE) 19:46:28 .
UWE-3 22 Feb 19:45:14 19:49:37 69° 75° (ENE) 19:54:09 435.000/436.395/437.385
ZACube-1 22 Feb 20:13:14 20:17:39 83° 77° (ENE) 20:22:12 437.345
AAUSAT CUBESAT 2 22 Feb 20:17:24 20:21:20 40° 262° (W) 20:25:17 437.432
SEEDS 22 Feb 20:20:00 20:23:10 20° 267° (W) 20:26:20 437.485
YUBILEINY 22 Feb 20:24:17 20:30:56 23° 64° (ENE) 20:37:30 435.215
STRAND 1 22 Feb 20:36:39 20:41:18 35° 292° (WNW) 20:45:54 437.568
HO-68 22 Feb 20:37:04 20:42:08 20° 269° (W) 20:47:14 435.675
CUBEBUG 2 22 Feb 20:39:09 20:42:27 21° 268° (W) 20:45:51 437.445
DELFI C3 22 Feb 20:42:02 20:45:47 41° 73° (ENE) 20:49:32 145.870
PRISM 22 Feb 20:45:45 20:48:01 14° 92° (E) 20:50:17 437.425
RS-15 22 Feb 21:03:53 21:14:22 32° 334° (NNW) 21:25:04 29.354- 29.394
AO-73 22 Feb 21:04:11 21:08:07 31° 265° (W) 21:12:09 145.935
Oscar 11 22 Feb 21:15:08 21:18:48 26° 265° (W) 21:22:30 .
UWE-3 22 Feb 21:25:12 21:26:35 11° 272° (W) 21:27:59 435.000/436.395/437.385
UNISAT 6 22 Feb 21:35:31 21:39:22 24° 94° (E) 21:43:10 437.425
TIGRISAT 22 Feb 21:36:49 21:40:36 23° 94° (E) 21:44:19 435.000
FO-29 22 Feb 21:58:29 22:04:52 28° 90° (E) 22:10:47 435.910
DELFI C3 22 Feb 22:18:30 22:20:47 15° 268° (W) 22:23:03 145.870
PRISM 22 Feb 22:19:39 22:23:32 45° 288° (WNW) 22:27:26 437.425
YUBILEINY 22 Feb 22:19:59 22:28:44 78° 265° (W) 22:37:23 435.215
SPROUT 22 Feb 22:21:30 22:22:16 10° 61° (ENE) 22:23:02 437.525
SO-50 22 Feb 22:42:02 22:46:31 46° 118° (ESE) 22:50:57 436.795
ESTCUBE 1 22 Feb 22:45:24 22:49:53 72° 76° (ENE) 22:54:25 437.505/2401.250
50 SAT 22 Feb 23:00:56 23:03:33 20° 68° (ENE) 23:06:09 437.505
DUCHIFAT 1 22 Feb 23:04:51 23:07:19 15° 92° (E) 23:09:46 145.980
EO-79 22 Feb 23:11:32 23:14:50 21° 94° (E) 23:18:06 145.935-145.965
UNISAT 6 22 Feb 23:11:49 23:16:07 35° 290° (WNW) 23:20:22 437.425
TIGRISAT 22 Feb 23:13:00 23:17:20 37° 290° (WNW) 23:21:37 435.000
VELOX 1 22 Feb 23:23:32 23:27:52 62° 73° (ENE) 23:32:12 145.980
DX 1 22 Feb 23:25:21 23:29:05 29° 68° (ENE) 23:32:50 434.975-435.025
POLYITAN 1 22 Feb 23:27:41 23:31:34 32° 97° (E) 23:35:24 437.675
AIST 2D 22 Feb 23:29:19 23:32:52 58° 101° (E) 23:36:21 435.315
NANOSAT C BR1 22 Feb 23:29:59 23:33:48 31° 97° (E) 23:37:36 145.865
QB50P2 22 Feb 23:30:26 23:34:26 37° 98° (E) 23:38:24 145.880/145.840
